This is the latest recevied weather packets stored in our database for station/object WD4IXD. If no packets are shown the sender has not sent any weather packets the latest 10 day(s).
| Time | Temp. | Humidity | Pressure | Rain* | Wind** | Luminosity | Snow |
|---|---|---|---|---|---|---|---|
| 1778022904 | 1.11° C | 94% | 1014.1 hPa | 0 mm | - | 5 W/m² | - |
| 1778022616 | 1.11° C | 94% | 1014 hPa | 0 mm | - | 7 W/m² | - |
| 1778022304 | 1.11° C | 94% | 1014 hPa | 0 mm | - | 9 W/m² | - |
| 1778022015 | 1.11° C | 94% | 1014.1 hPa | 0 mm | - | 12 W/m² | - |
| 1778021704 | 1.11° C | 94% | 1014.2 hPa | 0 mm | - | 12 W/m² | - |
| 1778021417 | 1.11° C | 94% | 1014 hPa | 0.25 mm | - | 14 W/m² | - |
| 1778021104 | 1.67° C | 94% | 1013.7 hPa | 0.51 mm | - | 19 W/m² | - |
| 1778020807 | 1.67° C | 94% | 1013.6 hPa | 0.51 mm | - | 30 W/m² | - |
| 1778020216 | 1.67° C | 94% | 1013.4 hPa | 0.51 mm | - | 30 W/m² | - |
| 1778019904 | 1.67° C | 94% | 1013.4 hPa | 0.76 mm | - | 21 W/m² | - |
| 1778019615 | 1.67° C | 94% | 1013.5 hPa | 1.02 mm | - | 21 W/m² | - |
| 1778019303 | 1.67° C | 94% | 1013.4 hPa | 1.02 mm | - | 28 W/m² | - |
| 1778019016 | 1.67° C | 94% | 1013.3 hPa | 1.27 mm | - | 40 W/m² | - |
| 1778018715 | 1.67° C | 94% | 1013.3 hPa | 1.52 mm | - | 49 W/m² | - |
| 1778018415 | 1.67° C | 94% | 1013.3 hPa | 1.78 mm | - | 53 W/m² | - |
| 1778018103 | 1.67° C | 94% | 1013.3 hPa | 2.03 mm | - | 65 W/m² | - |
| 1778017815 | 1.67° C | 94% | 1013.4 hPa | 2.03 mm | - | 63 W/m² | - |
| 1778017504 | 1.67° C | 94% | 1013.3 hPa | 2.03 mm | - | 35 W/m² | - |
| 1778017215 | 1.67° C | 93% | 1013.3 hPa | 2.03 mm | - | 25 W/m² | - |
| 1778016905 | 1.67° C | 93% | 1013.6 hPa | 2.29 mm | - | 19 W/m² | - |
| 1778016615 | 1.67° C | 93% | 1013.6 hPa | 2.29 mm | - | 32 W/m² | - |
| 1778016304 | 1.67° C | 93% | 1013.7 hPa | 2.29 mm | - | 35 W/m² | - |
| 1778016015 | 2.22° C | 93% | 1013.6 hPa | 2.29 mm | - | 33 W/m² | - |
| 1778015704 | 2.22° C | 93% | 1013.5 hPa | 2.54 mm | - | 47 W/m² | - |
| 1778015415 | 2.78° C | 93% | 1013.7 hPa | 2.29 mm | - | 58 W/m² | - |
* Rain latest hour (hover to see other rain measurements)
** Current wind speed in m/s (hover to see current wind gust speed)